YAMAL 300K

Last updated on Tue Sep 22 2026 00:03:12 GMT+0000 (Coordinated Universal Time)

1 38978U 12061B 26264.52715625 .00000067 00000+0 00000+0 0 9999 2 38978 0.0114 215.2444 0000556 214.3002 303.6048 1.00271871 50593
UTC large
Height (km)
Speed (km/s)
/
Latitude / Longitude
Inclination (degrees)
Orbital Period (minutes)
Azimuth
Elevation
Range (km)
Doppler Factor

Next 0 passes for location: London (51.5072 / 0.1276)

No passes found over London.
YAMAL 300K